Wind_Speed
13 12 11 11 11 11 11 10 11 11 11 11 11 12 12 12 11 11 11 11 12 13 13 13 13 14 15 15 15 15 15 15 16 17 17 18 18 18 19 19 19 20 21
13 13 12 12 12 12 11 11 12 12 12 12 12 13 13 13 12 12 13 13 13 13 13 13 14 14 15 14 15 15 15 16 16 17 18 18 19 19 20 21 21 21 21
13 13 13 13 13 12 12 12 13 13 13 13 13 13 13 13 13 13 14 14 14 14 15 15 15 15 15 15 16 16 17 17 18 18 19 19 19 20 20 21 22 22 22
14 15 15 15 14 14 14 14 14 14 14 15 15 15 15 15 14 14 15 15 15 16 16 16 16 16 16 16 17 18 18 19 19 20 20 20 20 21 21 21 22 22 23
16 16 16 16 16 16 15 16 16 16 16 16 16 17 16 16 16 16 16 16 17 17 17 17 17 17 17 18 19 19 20 20 21 21 21 22 21 21 22 22 23 24 24
18 17 17 17 18 18 17 17 18 18 18 17 18 18 18 17 17 17 17 18 18 18 18 19 19 19 19 19 20 21 21 22 22 22 22 23 23 24 24 24 24 25 26
18 19 19 18 19 19 19 19 19 19 19 19 19 19 19 18 18 19 19 19 20 20 20 20 20 20 20 21 21 22 22 23 23 23 23 24 24 25 25 26 26 26 27
21 21 21 21 21 21 21 21 21 21 20 20 20 21 21 20 20 20 20 21 21 21 21 22 22 22 22 22 23 23 24 24 24 25 25 25 26 26 26 27 27 28 28
23 24 23 23 23 23 23 23 23 23 23 22 22 22 23 23 23 23 23 24 24 24 24 23 23 24 24 24 25 25 25 25 26 26 27 27 27 28 28 29 29 29 30
26 27 27 26 25 25 25 25 24 24 24 24 24 24 24 24 25 25 26 26 26 26 26 26 25 26 26 27 27 26 26 26 27 28 28 28 29 30 30 30 31 31 31
30 30 29 28 27 27 26 25 25 26 26 27 27 26 26 26 27 27 28 28 28 27 27 27 27 27 28 28 28 28 28 28 28 29 30 30 30 31 31 31 31 31 32
32 32 31 30 29 28 28 28 28 27 28 29 29 29 29 29 29 29 29 29 29 29 29 29 29 29 29 30 30 30 30 30 30 31 31 31 32 32 32 32 32 33 33
34 34 33 32 31 31 30 30 30 31 31 31 30 30 30 29 31 31 30 30 30 31 31 30 30 30 31 32 32 32 32 32 32 32 31 32 33 33 33 33 34 33 33
35 35 34 34 33 33 34 34 33 33 33 33 32 32 31 31 32 32 32 32 32 32 32 32 32 32 33 33 33 33 33 33 33 33 33 33 34 34 34 34 34 34 34
37 37 37 36 36 36 36 36 35 35 35 35 35 34 35 34 34 33 33 34 35 35 35 34 34 34 34 34 34 34 34 34 33 34 34 34 34 34 34 34 35 35 35
38 38 38 38 38 38 38 36 36 37 37 37 36 37 37 37 37 37 37 37 36 36 35 35 35 35 35 35 35 35 34 34 34 34 34 35 35 35 35 35 36 36 35
39 39 39 39 39 39 38 38 38 38 38 38 38 39 39 39 39 40 39 39 38 38 38 37 37 36 36 36 36 35 35 35 36 36 36 35 36 36 36 36 36 36 36
39 40 41 40 40 40 40 40 40 39 39 39 40 41 42 42 41 41 40 39 39 38 38 38 38 38 38 37 37 37 37 37 37 37 37 36 37 37 37 37 37 36 37
40 41 41 41 41 41 42 41 41 41 41 41 42 42 43 42 42 41 40 40 39 39 39 39 39 39 38 38 38 38 38 38 38 37 37 38 38 38 38 38 38 38 38
41 41 41 41 41 41 42 42 42 42 43 43 42 42 42 41 41 40 40 39 40 40 40 40 40 40 40 39 39 39 39 39 39 38 38 38 39 39 39 39 39 39 39
41 41 42 42 42 42 42 42 43 43 43 42 42 41 40 40 41 41 40 40 40 40 40 40 41 41 41 40 40 40 40 40 40 39 39 39 40 40 39 39 40 40 40
40 40 40 40 40 41 41 41 41 41 40 40 40 41 41 42 41 41 41 41 41 40 40 40 41 41 41 40 39 40 40 40 40 40 40 40 40 40 40 40 40 39 40
39 39 38 38 38 38 38 38 39 39 39 39 40 40 41 41 41 41 41 40 40 40 40 40 40 40 40 40 39 40 40 40 40 40 40 40 40 40 40 39 39 39 39
38 38 37 37 37 37 38 39 39 39 39 39 40 40 40 40 39 39 38 38 38 38 38 39 39 39 39 39 39 40 40 40 40 40 40 40 40 39 39 38 38 38 38
37 37 37 37 37 38 38 38 38 38 38 39 38 38 38 38 38 38 38 37 37 37 38 39 39 39 39 39 39 39 39 39 39 39 39 39 39 38 38 38 38 38 38
35 36 36 36 36 36 36 36 36 36 36 36 36 36 37 37 37 38 38 38 38 38 39 39 39 39 39 39 39 39 38 39 39 39 39 38 38 38 38 38 38 38 37
Wind_Direction
350 352 350 348 344 341 340 339 339 338 334 330 331 329 325 325 321 316 312 310 308 305 302 299 299 299 298 297 296 297 295 293 294 295 295 295 293 292 291 290 292 292 292
344 346 347 345 342 339 338 335 335 334 333 331 329 325 323 322 320 314 312 312 311 309 306 303 301 299 299 300 298 297 296 298 298 297 298 298 295 292 292 293 293 295 295
334 336 337 337 336 334 334 334 333 331 329 330 329 325 321 319 318 316 316 312 310 308 306 306 305 302 300 298 298 298 297 298 298 299 298 299 299 299 298 297 296 295 294
328 329 329 327 328 326 326 327 328 327 326 326 326 325 323 318 316 316 317 314 309 307 306 304 304 302 299 297 297 298 298 299 299 298 297 298 299 298 297 298 298 298 298
320 319 321 322 322 321 318 320 322 323 322 323 323 323 320 318 314 313 314 312 309 307 305 302 301 301 300 298 297 296 297 298 299 299 298 297 297 297 297 297 296 295 297
314 314 314 315 316 318 316 315 317 319 318 318 320 318 317 315 312 310 310 310 308 306 304 301 300 300 299 299 298 297 297 296 296 297 296 296 295 296 296 296 295 295 296
310 310 312 313 314 314 315 314 315 316 315 316 317 317 316 315 314 312 311 311 311 308 304 300 299 300 299 299 300 299 298 297 295 296 297 296 296 296 296 296 295 295 296
303 305 307 309 309 308 309 310 310 310 310 311 313 315 312 311 311 309 310 311 311 309 306 304 301 300 300 299 299 298 297 297 296 296 297 296 296 297 296 295 294 295 295
298 299 301 303 304 305 305 304 304 306 305 305 306 308 308 307 306 306 306 307 308 306 305 305 303 300 300 299 298 297 297 296 296 297 297 297 296 296 295 294 293 294 294
292 295 296 298 300 301 302 301 301 304 304 302 302 303 304 306 306 305 303 303 303 303 303 302 301 300 299 299 298 297 297 296 297 296 295 296 296 296 295 294 293 293 294
288 290 291 293 295 296 298 300 299 300 301 301 299 299 299 301 303 304 304 302 301 300 299 298 298 298 299 299 299 298 297 297 297 296 296 295 295 296 295 295 294 294 295
286 287 286 287 291 292 293 296 297 299 300 299 297 296 295 296 298 299 302 302 300 300 300 298 297 297 297 297 298 298 297 297 297 297 295 295 296 296 295 294 294 295 295
284 285 284 283 285 287 290 292 295 297 298 298 297 297 295 295 297 297 298 301 301 299 298 297 297 296 297 298 298 297 297 296 296 296 296 295 295 295 294 294 294 294 295
280 281 282 283 283 285 287 289 291 293 295 294 295 295 295 297 297 296 296 298 299 299 299 298 297 296 296 297 298 298 297 297 295 295 295 296 295 295 294 293 293 294 295
277 278 280 281 282 282 283 285 287 290 291 292 292 292 294 295 296 295 295 296 298 299 299 299 299 298 297 297 297 296 296 296 295 295 295 295 295 294 293 293 293 294 294
275 275 278 279 280 281 282 283 285 287 288 288 289 289 291 292 292 293 293 294 295 296 297 297 298 297 297 297 297 296 295 295 295 295 295 295 295 294 294 293 293 294 293
274 275 276 278 280 281 282 283 284 285 286 286 287 288 288 290 290 291 291 293 294 294 294 295 296 296 296 296 296 295 295 295 293 294 294 294 294 295 295 294 294 294 293
274 276 277 278 279 280 281 282 284 285 285 285 285 286 286 286 288 289 290 291 292 292 293 293 294 295 295 295 295 295 294 294 294 294 294 294 294 295 295 295 295 294 293
275 277 278 278 279 280 281 281 282 284 285 285 285 285 286 286 286 287 287 289 290 291 291 291 292 293 294 294 295 295 295 294 294 294 294 294 294 295 295 295 295 294 293
275 277 278 278 278 279 280 281 282 283 284 284 285 285 285 286 285 286 287 287 288 288 288 289 290 291 291 292 293 293 294 294 294 294 294 294 294 294 294 294 294 294 293
275 276 277 278 278 279 281 282 282 282 283 283 284 285 285 286 286 286 286 286 287 287 287 288 289 290 290 290 291 292 292 293 293 293 293 293 293 293 293 293 293 294 293
277 278 278 278 279 280 281 281 281 282 283 284 285 286 286 286 285 285 285 286 286 285 286 288 289 290 291 292 292 292 292 292 292 292 292 293 293 293 293 292 292 292 293
278 279 280 280 280 281 281 281 282 283 284 284 284 285 285 285 285 285 285 285 286 287 289 290 290 291 291 291 291 291 292 293 292 292 293 293 293 293 292 292 293 292 292
277 278 279 279 280 281 283 283 284 284 285 284 284 285 285 284 285 286 287 288 289 290 290 290 291 291 291 292 292 291 291 292 292 292 292 292 292 292 292 292 292 291 292
276 277 277 278 280 282 283 284 285 285 285 285 284 284 284 285 285 287 288 289 289 290 291 291 290 290 291 290 291 292 292 292 291 291 291 292 292 292 292 292 291 291 291
277 277 277 279 282 284 285 285 285 285 285 284 283 282 283 285 286 286 287 288 288 289 289 289 289 290 291 292 292 292 292 292 292 291 291 292 292 292 292 291 291 291 291
Height
5903 5901 5899 5898 5896 5895 5893 5892 5891 5889 5888 5887 5886 5884 5883 5882 5880 5880 5879 5878 5877 5876 5874 5874 5873 5872 5871 5870 5869 5868 5867 5866 5865 5864 5863 5861 5860 5858 5857 5855 5855 5854 5852
5902 5901 5899 5897 5896 5894 5892 5891 5889 5888 5886 5885 5884 5882 5881 5880 5878 5877 5876 5875 5874 5873 5871 5870 5869 5868 5867 5866 5865 5864 5863 5862 5861 5860 5858 5856 5855 5853 5852 5851 5849 5848 5847
5901 5900 5898 5896 5895 5893 5892 5890 5888 5887 5885 5883 5882 5881 5879 5877 5876 5875 5873 5872 5871 5870 5868 5867 5866 5865 5864 5862 5861 5860 5859 5858 5857 5856 5854 5852 5850 5849 5847 5846 5844 5843 5841
5898 5898 5896 5895 5893 5891 5890 5888 5886 5885 5883 5881 5880 5878 5877 5875 5874 5872 5870 5869 5868 5866 5865 5864 5862 5861 5860 5858 5857 5856 5855 5853 5852 5851 5849 5847 5846 5844 5842 5841 5839 5837 5835
5897 5896 5894 5892 5891 5889 5888 5886 5885 5883 5881 5879 5878 5876 5874 5872 5871 5869 5868 5866 5864 5863 5861 5860 5858 5857 5855 5854 5853 5852 5850 5848 5847 5845 5844 5842 5840 5839 5837 5835 5833 5831 5830
5895 5894 5892 5890 5888 5886 5884 5883 5882 5880 5879 5877 5875 5873 5871 5869 5867 5866 5864 5862 5861 5859 5857 5855 5853 5852 5851 5849 5848 5846 5845 5843 5842 5840 5838 5836 5834 5833 5831 5829 5827 5825 5823
5892 5890 5888 5887 5885 5883 5881 5880 5878 5877 5875 5874 5872 5869 5867 5865 5864 5863 5861 5859 5857 5855 5853 5850 5849 5847 5846 5844 5843 5841 5839 5838 5836 5835 5833 5831 5829 5827 5825 5823 5820 5819 5816
5888 5887 5885 5883 5881 5879 5877 5876 5874 5873 5871 5870 5868 5866 5864 5862 5860 5858 5857 5855 5852 5850 5848 5846 5844 5842 5840 5839 5837 5835 5834 5832 5830 5828 5826 5824 5822 5820 5817 5815 5813 5811 5809
5884 5882 5880 5879 5877 5875 5873 5871 5870 5868 5867 5865 5863 5862 5860 5857 5856 5854 5852 5850 5847 5845 5843 5841 5839 5837 5835 5833 5831 5829 5827 5825 5823 5821 5819 5817 5815 5812 5810 5808 5805 5803 5801
5878 5877 5875 5874 5872 5870 5868 5866 5865 5863 5861 5860 5858 5856 5854 5852 5850 5848 5846 5844 5842 5840 5838 5835 5833 5831 5829 5827 5824 5822 5820 5818 5816 5814 5812 5810 5807 5804 5802 5800 5797 5795 5792
5871 5870 5869 5867 5866 5865 5862 5860 5859 5857 5855 5854 5852 5850 5848 5846 5844 5842 5840 5837 5836 5834 5832 5829 5827 5825 5822 5820 5818 5815 5813 5811 5808 5806 5804 5802 5799 5797 5794 5791 5788 5786 5784
5864 5863 5861 5860 5859 5858 5856 5854 5852 5850 5849 5847 5845 5843 5841 5839 5837 5835 5833 5830 5828 5826 5824 5822 5820 5817 5815 5813 5810 5808 5805 5803 5801 5798 5796 5793 5791 5788 5785 5782 5780 5777 5774
5856 5855 5853 5852 5851 5850 5849 5847 5845 5843 5842 5840 5838 5836 5833 5831 5830 5828 5825 5823 5820 5818 5816 5814 5812 5809 5807 5804 5802 5799 5797 5794 5792 5789 5787 5785 5782 5779 5776 5774 5771 5768 5765
5847 5846 5845 5843 5842 5841 5840 5838 5837 5835 5834 5832 5830 5828 5825 5823 5822 5820 5818 5815 5813 5810 5808 5805 5803 5801 5798 5796 5793 5790 5788 5785 5783 5780 5778 5775 5773 5770 5767 5764 5762 5759 5756
5838 5837 5836 5834 5833 5832 5831 5829 5828 5827 5825 5823 5821 5819 5817 5816 5814 5811 5809 5807 5804 5802 5799 5797 5794 5792 5789 5787 5784 5781 5779 5776 5773 5771 5768 5765 5763 5760 5757 5755 5752 5749 5747
5828 5827 5826 5825 5824 5822 5820 5819 5817 5817 5816 5814 5812 5810 5808 5806 5804 5802 5800 5798 5795 5793 5790 5788 5785 5783 5780 5777 5775 5772 5769 5766 5764 5761 5758 5756 5753 5750 5748 5745 5742 5739 5736
5818 5817 5816 5815 5814 5813 5811 5810 5809 5807 5805 5804 5802 5800 5798 5796 5794 5792 5790 5787 5785 5783 5780 5778 5776 5773 5770 5767 5765 5762 5759 5757 5754 5751 5748 5746 5743 5740 5737 5734 5731 5729 5726
5807 5806 5805 5804 5803 5802 5801 5799 5798 5796 5795 5793 5791 5789 5787 5785 5783 5781 5779 5777 5775 5772 5770 5767 5765 5762 5760 5757 5754 5751 5749 5746 5743 5741 5738 5735 5732 5729 5727 5724 5721 5718 5715
5796 5795 5794 5793 5792 5791 5790 5788 5787 5785 5784 5782 5780 5778 5776 5773 5771 5769 5767 5766 5764 5761 5759 5757 5754 5752 5749 5746 5743 5740 5738 5735 5732 5730 5727 5724 5721 5718 5715 5712 5710 5707 5704
5784 5783 5782 5781 5780 5779 5777 5776 5775 5774 5772 5770 5768 5766 5764 5762 5760 5758 5757 5754 5752 5750 5748 5745 5743 5740 5738 5735 5732 5730 5727 5724 5721 5718 5716 5713 5710 5707 5704 5701 5698 5695 5693
5772 5771 5770 5769 5768 5767 5765 5764 5763 5761 5760 5758 5756 5754 5752 5751 5749 5747 5745 5743 5741 5738 5736 5733 5731 5729 5726 5723 5721 5718 5716 5713 5710 5707 5704 5701 5698 5695 5692 5689 5686 5683 5680
5761 5760 5759 5757 5756 5755 5753 5752 5751 5749 5747 5746 5744 5743 5741 5739 5737 5735 5733 5731 5729 5726 5724 5722 5719 5717 5714 5711 5709 5706 5704 5701 5698 5695 5692 5689 5686 5683 5680 5677 5674 5671 5668
5749 5748 5747 5746 5744 5743 5742 5740 5739 5737 5736 5734 5733 5731 5729 5727 5725 5723 5721 5719 5716 5714 5712 5709 5707 5705 5702 5699 5697 5694 5691 5689 5686 5683 5680 5677 5674 5671 5668 5665 5662 5659 5656
5738 5737 5736 5735 5734 5732 5731 5729 5727 5726 5724 5723 5721 5719 5717 5716 5713 5711 5709 5707 5705 5703 5701 5698 5696 5693 5690 5687 5685 5682 5679 5676 5673 5670 5668 5665 5662 5658 5655 5653 5650 5647 5644
5727 5727 5726 5725 5723 5721 5720 5718 5716 5714 5713 5711 5709 5707 5706 5704 5702 5700 5698 5696 5693 5691 5689 5687 5684 5681 5678 5676 5673 5670 5667 5664 5661 5658 5655 5652 5649 5646 5644 5641 5638 5635 5632
5717 5716 5715 5714 5712 5710 5709 5707 5705 5703 5701 5700 5698 5696 5694 5692 5691 5689 5687 5685 5682 5680 5678 5675 5672 5670 5667 5664 5661 5658 5655 5652 5649 5646 5643 5640 5638 5635 5632 5629 5626 5623 5620